www.pogodaiklimat.ru

Погода и климат >> Архив погоды >> Россия >> Якутия >> Джалинда


ПОГОДА в Джалинде

  • Прогноз погоды в Джалинде
  • Монитор погоды в Джалинде
  • Климат города

АРХИВ ПОГОДЫ в Джалинде

Время (UTC), дата Ветер
(напр.,м/с)
 
Видим.   Явления Облачность Т
(С)
Тd
(С)
f
(%)
Тe
(С)
Тes
(С)
Комфортность P
(гПа)
Po
(гПа)
Тmin
(С)
Tmax
(С)
R
(мм)
S
(см)
06 17.03 штиль 0 50 км 3/0
[Ci sp]
-17.0 -23.9 55 -17 -14 1014.1 1005.7
09 17.03 штиль 0 50 км 3/0
[Ci fib]
-15.2 -21.2 60 -15 -15 1014.4 1006.1
12 17.03 штиль 0 50 км 3/0
[Ci fib]
-19.3 -23.4 70 -19 -19 1013.7 1005.3 -15.0
15 17.03 штиль 0 50 км ясно -27.7 -31.5 70 -28 -28 1014.6 1005.8
18 17.03 штиль 0 50 км ясно -29.5 -32.0 79 -30 -30 1014.6 1005.8
21 17.03 штиль 0 50 км 10/0
[Ci sp]
-15.9 -19.3 75 -16 -16 1008.1 999.9
00 18.03 штиль 0 50 км 8/0
[Ci sp]
-14.5 -18.0 75 -15 -14 1007.9 999.7 -29.5 33
03 18.03 н/о -7.3 -15.3 53 1007.8 999.8
06 18.03 ЮЗ 3 50 км 8/0
[Ci sp]
-6.2 -12.1 63 -12 -10 1008.6 1000.7
09 18.03 ЮЗ 3 50 км 10/0
[Cs]
-5.6 -9.4 75 -11 -11 1011.0 1003.1
12 18.03 ЮЗ 3 50 км 8/0
[Ci sp]
-6.7 -10.4 75 -12 -12 1011.5 1003.5 -5.4
15 18.03 ЮЗ 5 50 км 10/0
[Cs]
-5.6 -9.0 77 -13 -13 1011.3 1003.4
18 18.03 ЮЗ 5 50 км 10/0
[Cs]
-6.0 -9.5 76 -13 -13 1011.2 1003.3
21 18.03 штиль 0 50 км 10/0
[As op]
-5.4 -9.2 75 -6 -6 1012.8 1004.8
00 19.03 З 5 50 км в посл. час снег 10/10 50 м
[Sc]
-2.6 -6.3 76 -9 -9 1014.5 1006.5 -6.0 0.3 34
03 19.03 ЮЗ 1 20 км слабый снег 10/0
[As op]
-1.6 -4.6 80 -4 -3 1014.7 1006.7
06 19.03 ЮЗ 5 20 км слабый снег 10/0
[As op]
-0.3 -3.3 80 -6 -6 1015.5 1007.7
09 19.03 З 3 50 км {снег} 10/0
[As op]
-1.0 -5.0 74 -6 -6 1015.2 1007.4
12 19.03 ЮЗ 3 50 км {снег} 10/4 600 м
[Sc Ci sp]
-1.0 -6.4 67 -6 -6 1016.0 1008.2 -1.2 0.0
15 19.03 ЮЗ 5 50 км 10/5 600 м
[Sc Ci sp]
-1.3 -7.2 64 -7 -7 1016.7 1008.7
18 19.03 З 5 50 км 6/6 600 м
[Sc]
-2.4 -7.6 67 -9 -9 1017.9 1009.9
21 19.03 З 5 50 км 3/3 600 м
[Sc]
-2.8 -7.7 69 -9 -9 1018.7 1010.7
00 20.03 СЗ 3 50 км 8/8 600 м
[Sc]
-1.5 -6.7 68 -6 -6 1021.4 1013.7 -2.8 34
03 20.03 СЗ 3 50 км 6/0
[Ci sp]
-0.5 -6.4 64 -5 -3 1022.5 1014.7
06 20.03 З 1 50 км 4/0
[Ci sp]
+1.2 -6.2 58 -0 +2 1023.0 1015.1
09 20.03 З 5 50 км 4/0
[Ci sp]
+0.6 -5.9 62 -5 -5 1023.3 1015.4
12 20.03 З 1 50 км 4/0
[Ci sp]
-5.5 -10.6 67 -8 -8 1023.5 1015.5 +1.4
15 20.03 З 1 50 км 6/0
[Ci sp]
-6.5 -11.1 70 -9 -9 1024.4 1016.3
18 20.03 З 1 50 км 8/0
[Ci sp]
-8.0 -12.1 72 -10 -10 1025.3 1017.1
21 20.03 штиль 0 50 км 4/0
[Ci fib]
-9.7 -11.8 85 -10 -10 1019.9 1011.8
00 21.03 штиль 0 50 км 4/0
[Ci fib]
-5.3 -6.7 90 -6 -6 1020.1 1012.1 -9.7 34
03 21.03 штиль 0 50 км 3/0
[Ci fib]
-5.0 -9.5 71 -6 -3 1019.7 1011.7
06 21.03 ЮЗ 3 50 км 4/0
[Ci sp]
-0.9 -7.8 59 -5 -3 1018.5 1010.7
09 21.03 З 1 50 км 8/0
[Ci sp]
-0.8 -7.7 59 -2 -2 1019.5 1011.7
12 21.03 штиль 0 50 км 8/0
[Ci sp]
-3.3 -9.7 61 -4 -4 1018.6 1010.6 -0.6
15 21.03 З 1 50 км 10/0
[Cs]
-4.9 -9.3 71 -7 -7 1017.9 1009.9
18 21.03 ЮЗ 1 50 км 10/0
[Cs]
-5.6 -9.4 75 -8 -8 1017.3 1009.3
21 21.03 З 1 50 км 8/8 600 м
[Sc]
-5.3 -7.8 83 -8 -8 1019.4 1011.4
00 22.03 штиль 0 50 км 3/0
[Ci sp]
-8.3 -9.8 89 -9 -8 1021.0 1012.9 -8.3 34
03 22.03 штиль 0 50 км ясно -4.2 -9.7 65 -5 -1 1022.1 1014.1
06 22.03 ЮЗ 1 50 км ясно -2.7 -9.7 59 -4 -1 1022.3 1014.3
09 22.03 З 1 50 км 4/0
[Ci sp]
-1.5 -9.2 56 -3 -3 1019.7 1011.7
12 22.03 штиль 0 50 км 9/0
[Ci sp]
-4.7 -11.2 60 -5 -5 1020.3 1012.3 -1.7
15 22.03 штиль 0 50 км 6/0
[Ci fib]
-10.5 -14.9 70 -11 -11 1020.4 1012.3
18 22.03 штиль 0 50 км 6/0
[Ci fib]
-11.6 -15.1 75 -12 -12 1020.5 1012.3
21 22.03 штиль 0 50 км 4/0
[Ci sp]
-15.2 -15.8 95 -15 -15 1019.7 1011.4
00 23.03 штиль 0 50 км 8/0
[Ci sp]
-13.7 -15.0 90 -14 -13 1018.0 1009.7 -15.2 34
03 23.03 штиль 0 50 км 9/0
[Cs]
-7.5 -11.4 74 -8 -5 1015.8 1007.7
06 23.03 Ю 3 50 км 9/0
[Cs]
-2.8 -9.0 62 -8 -6 1014.3 1006.3
09 23.03 ЮЗ 5 50 км 10/0
[Cs]
-2.9 -10.0 58 -9 -9 1013.8 1005.8
12 23.03 штиль 0 50 км 6/0
[Ci sp]
-5.7 -10.0 72 -6 -6 1013.8 1005.8 -2.5
15 23.03 штиль 0 50 км 3/0
[Ci sp]
-11.9 -14.6 80 -12 -12 1014.2 1005.9
18 23.03 штиль 0 50 км 3/0
[Ci sp]
-13.7 -16.4 80 -14 -14 1014.2 1005.9
21 23.03 штиль 0 50 км 3/0
[Ci sp]
-15.0 -16.3 90 -15 -15 1011.9 1003.7
00 24.03 штиль 0 50 км 5/0
[Ci sp]
-19.0 -20.2 90 -19 -18 1012.6 1004.2 -19.0 34
03 24.03 штиль 0 50 км 9/0
[Ci sp]
-9.5 -13.0 76 -10 -7 1013.4 1005.3

 

Местоположение метеостанции Джалинда (Якутия, Россия): широта 70.13 долгота 113.90 высота над уровнем моря 62 м.

В архиве по умолчанию представлена погода в Джалинде за последнюю неделю. Архивные данные за месяц целиком и за предыдущие месяцы, начиная с января 2011 года, Вы можете получить, выбрав интересующий диапазон дат из раскрывающегося списка и нажав кнопку "Ввод!".

Внимание! Время в таблицах - всемирное. Для получения местного времени необходимо прибавить поправку, которая в Джалинде равна 9 ч.

Смотрите также архив погоды в соседних городах и на ближайших метеорологических станциях:

Погода в Оленеке (Якутия, Россия) (191 км)
Погода в Саскылахе (Якутия, Россия) (205 км)
Погода в Сухане (Якутия, Россия) (241 км)
Погода в Анабаре (Якутия, Россия) (344 км)
Погода в Усть-Оленеке (Якутия, Россия) (380 км)
Погода в Полярном (Якутия, Россия) (383 км)
Погода в Ярольине (Якутия, Россия) (399 км)
Погода в Тюмяти (Якутия, Россия) (400 км)
Погода в Джарджане (Якутия, Россия) (424 км)
Погода в Шелагонцах (Якутия, Россия) (432 км)

Пояснения к столбцам:

Ветер - указаны скорость ветра в м/с - средняя за 10 мин, порывы в срок и между сроками (в фигурных скобках) и направление, откуда дует ветер: С - северный, СВ - северо-восточный, В - восточный, ЮВ - юго-восточный, Ю - южный, ЮЗ - юго-западный, З - западный, СЗ - северо-западный.
Видимость - горизонтальная дальность видимости в метрах или километрах. При видимости от 1 до 10 км при отсутствии осадков обычно наблюдается дымка, при ухудшении видимости до 1 км и менее - туман. В сухую погоду видимость может ухудшаться дымом, пылью или мглою.
Явления - указаны атмосферные явления, наблюдавшиеся в срок или в последний час перед сроком; фигурными скобками обозначены явления, наблюдавшиеся между сроками (за 1-3 часа до срока); квадратными скобками обозначены град или гололедные отложения с указанием их диаметра в мм.
Облачность - указаны через наклонную черту общая и нижняя облачность в баллах и высота нижней границы облаков в метрах; квадратными скобками обозначены формы облаков: Ci - перистые, Cs - перисто-слоистые, Cc - перисто-кучевые, Ac - высококучевые, As - высокослоистые, Sc - слоисто-кучевые, Ns - слоисто-дождевые, Cu - кучевые, Cb - кучево-дождевые. Подробнее классификацию облаков см. в Атласе облаков (PDF).
T - Температура воздуха - температура, измеренная на высоте 2 м над землей.
Td - Температура точки росы - температура, при понижении до которой содержащийся в воздухе водяной пар достигнет насыщения.
f - Относительная влажность воздуха - влажноcть воздуха, измеренная на высоте 2 м над землей.
Te - Эффективная температура - температура, которую ощущает одетый по сезону человек в тени. Характеристика душности погоды. При расчете учитывается влияние влажности воздуха и скорости ветра на теплоощущения человека.
Tes - Эффективная температура на солнце - температура, которую ощущает человек, с поправкой на солнечный нагрев. Характеристика знойности погоды. Зависит от высоты солнца над горизонтом, облачности и скорости ветра. Ночью, в пасмурную погоду, а также при ветре 12 м/с и более поправка равна нулю.
P - Атмосферное давление - приведенное к уровню моря атмосферное давление.
Po - Атмосферное давление - измеренное на уровне метеостанции атмосферное давление.
Tmin - Минимальная температура - минимум температуры воздуха на высоте 2 м над землей.
Tmax - Максимальная температура - максимум температуры воздуха на высоте 2 м над землей.
R - Количество осадков - Количество выпавших осадков, мм. При наведении курсора мыши на число - период времени, за который выпало указанное количество осадков.
S - Снежный покров - Высота снежного покрова, см. При наведении курсора мыши на число - состояние снежного покрова и степень покрытия местности в баллах.